TimeCDT,TemperatureF,Dew PointF,Humidity,Sea Level PressureIn,VisibilityMPH,Wind Direction,Wind SpeedMPH,Gust SpeedMPH,PrecipitationIn,Events,Conditions,WindDirDegrees,DateUTC
12:53 AM,43.0,28.9,58,30.13,10.0,SSE,12.7,-,N/A,,Clear,160,2013-03-29 05:53:00
1:53 AM,42.1,28.9,60,30.12,10.0,South,13.8,-,N/A,,Clear,170,2013-03-29 06:53:00
2:53 AM,41.0,28.9,62,30.12,10.0,South,13.8,-,N/A,,Clear,170,2013-03-29 07:53:00
4:53 AM,43.0,28.0,56,30.08,10.0,SSW,12.7,-,N/A,,Clear,200,2013-03-29 09:53:00
5:53 AM,42.1,28.9,60,30.08,10.0,SSW,12.7,-,N/A,,Clear,210,2013-03-29 10:53:00
6:53 AM,42.1,28.9,60,30.09,10.0,Calm,Calm,-,N/A,,Clear,0,2013-03-29 11:53:00
7:53 AM,42.1,28.9,60,30.11,10.0,SSW,4.6,-,N/A,,Clear,210,2013-03-29 12:53:00
8:53 AM,44.1,30.9,60,30.12,10.0,SSW,3.5,-,N/A,,Clear,210,2013-03-29 13:53:00
9:53 AM,50.0,33.1,52,30.11,10.0,SSW,5.8,-,N/A,,Clear,210,2013-03-29 14:53:00
10:53 AM,57.0,35.1,44,30.07,10.0,SW,4.6,-,N/A,,Clear,220,2013-03-29 15:53:00
11:53 AM,64.0,36.0,35,30.05,10.0,Variable,3.5,-,N/A,,Clear,0,2013-03-29 16:53:00
12:53 PM,68.0,36.0,31,30.03,10.0,South,8.1,-,N/A,,Clear,170,2013-03-29 17:53:00
1:53 PM,70.0,37.9,31,30.01,10.0,South,11.5,19.6,N/A,,Clear,170,2013-03-29 18:53:00
2:53 PM,73.0,36.0,26,29.97,10.0,SSE,16.1,23.0,N/A,,Clear,160,2013-03-29 19:53:00
3:53 PM,71.1,36.0,28,29.93,10.0,South,16.1,23.0,N/A,,Mostly Cloudy,180,2013-03-29 20:53:00
4:53 PM,70.0,35.1,28,29.92,10.0,SSW,21.9,34.5,N/A,,Mostly Cloudy,200,2013-03-29 21:53:00
5:53 PM,68.0,39.0,35,29.92,10.0,SSW,15.0,-,N/A,,Clear,200,2013-03-29 22:53:00
6:53 PM,66.9,37.9,34,29.92,10.0,SSW,15.0,-,N/A,,Clear,200,2013-03-29 23:53:00
7:53 PM,61.0,39.9,46,29.93,10.0,South,10.4,-,N/A,,Scattered Clouds,180,2013-03-30 00:53:00
8:53 PM,59.0,46.0,62,29.95,10.0,SSW,11.5,-,0.00,Rain,Light Rain,210,2013-03-30 01:53:00
9:53 PM,55.9,46.0,69,29.96,10.0,South,13.8,23.0,0.00,,Mostly Cloudy,190,2013-03-30 02:53:00
10:53 PM,53.1,45.0,74,29.96,10.0,South,9.2,-,N/A,,Mostly Cloudy,180,2013-03-30 03:53:00
11:53 PM,51.1,45.0,80,29.94,10.0,SSW,13.8,-,N/A,,Clear,210,2013-03-30 04:53:00